Regional Weather Roundup
Issued by NWS

Home | Current Version | Previous Version | Graphics & Text | Print | Product List | Glossary On
Versions: 1 2 3 4 5 6 7 8 9 10 11 12 13 14 15 16 17 18 19 20 21 22 23 24 25 26 27 28 29 30 31 32 33 34 35 36 37 38 39 40 41 42 43 44 45 46 47 48 49 50
000
ASUS43 KDMX 301107
RWRIA

WEATHER ROUNDUP FOR IOWA
NATIONAL WEATHER SERVICE DES MOINES IA
600 AM CDT TUE SEP 30 2014

NOTE: "FAIR" INDICATES FEW OR NO CLOUDS BELOW 12,000 FEET WITH NO
SIGNIFICANT WEATHER AND/OR OBSTRUCTIONS TO VISIBILITY.

* - THESE STATIONS ARE NOT NWS STATIONS...THUS NOT UNDER NWS
QUALITY CONTROL.  THEY ALSO DO NOT REPORT WEATHER SUCH
AS PRECIPITATION OR FOG.

IAZ001>003-012>014-020>022-031>034-043>046-301200-
   NORTHWEST IOWA

CITY           SKY/WX    TMP DP  RH WIND       PRES   REMARKS
CARROLL *      CLOUDY    54  54 100 E8        29.95S
CHEROKEE *     CLOUDY    52  52 100 E5        29.94S
DENISON *      CLOUDY    57  57 100 E10       29.91F
LE MARS *        N/A     55  52  88 CALM      29.92S
ORANGE CITY *  PTCLDY    54  48  82 E10       29.92S
SHELDON *      CLOUDY    52  50  93 E10       29.92F
SIOUX CITY     MOCLDY    58  55  90 E10       29.89S
SPENCER        MOCLDY    51  48  89 E13       29.96F
STORM LAKE *   CLOUDY    52  50  93 E10       29.95F
$$

IAZ055>058-069>071-079>083-090>094-301200-
   SOUTHWEST IOWA

CITY           SKY/WX    TMP DP  RH WIND       PRES   REMARKS
ATLANTIC *     CLOUDY    61  59  94 E7        29.92F FOG
AUDUBON *      CLOUDY    57  52  82 SE9       29.95S HAZE
CLARINDA *     CLEAR     57  55  94 CALM      29.93S
COUNCIL BLFS *   N/A     61  61 100 E7G13     29.90R
CRESTON *      FOG       59  59 100 E10       29.95F VSB 1/4
HARLAN  *      CLOUDY    59  59 100 E9        29.96S FOG
LAMONI         PTCLDY    60  59  96 E7        29.95S FOG
RED OAK *      CLEAR     61  59  94 E3        29.91S FOG
SHENANDOAH *   CLEAR     59  55  88 CALM      29.91S
$$

IAZ047>049-059>061-072>074-084-301200-
   CENTRAL IOWA

CITY           SKY/WX    TMP DP  RH WIND       PRES   REMARKS
AMES           CLOUDY    55  54  96 E8        29.98F
ANKENY *       CLOUDY    57  55  94 E7        29.97F
CHARITON *     CLOUDY    59  59 100 E9        29.97S FOG
DES MOINES     CLOUDY    58  55  90 E9        29.96F
GRINNELL*      CLOUDY    55  54  94 E8        30.00S FOG
KNOXVILLE *    CLOUDY    59  55  88 E8        29.97S
MARSHALLTOWN   CLOUDY    55  53  93 E13       30.00S
PELLA *        CLOUDY    57  57 100 E9        29.99F
PERRY *        CLOUDY    55  55 100 E6        29.96F
$$

IAZ004>006-015-016-023>025-035-036-301200-
   NORTH CENTRAL IOWA

CITY           SKY/WX    TMP DP  RH WIND       PRES   REMARKS
ALGONA *       CLOUDY    50  50 100 SE10      30.00S
CLARION *      CLOUDY    54  52  94 E10       30.00S
ESTHERVILLE    MOCLDY    47  46  97 E8        29.98F
FORT DODGE *   CLOUDY    52  48  87 E9        29.98F
MASON CITY     CLOUDY    48  46  93 E12       30.03S
FOREST CITY *  CLOUDY    48  48 100 E12       30.01S
IOWA FALLS *   CLOUDY    52  48  87 E8        30.01S
$$

IAZ007>011-017>019-026>030-037>042-050>054-066-301200-
   NORTHEAST IOWA

CITY           SKY/WX    TMP DP  RH WIND       PRES   REMARKS
CEDAR RAPIDS   CLOUDY    54  52  94 E12       30.02S
CHARLES CITY * CLOUDY    48  46  93 E8        30.05S
CLINTON *      CLOUDY    52  46  82 E12       30.06S
DECORAH *      CLOUDY    48  45  87 E8        30.06S
MONTICELLO *   CLOUDY    52  50  93 NE6G13    30.04S
OELWEIN *      CLOUDY    52  50  93 E8G16     30.05R
WATERLOO       CLOUDY    53  50  89 E13       30.02S
$$

IAZ064-065-067-068-078-301200-
   EAST CENTRAL IOWA

CITY           SKY/WX    TMP DP  RH WIND       PRES   REMARKS
IOWA CITY      CLOUDY    55  52  89 E13G20    30.03F
MT. PLEASANT * FOG       59  55  88 E9        29.99F VSB 3/4
MUSCATINE *    CLOUDY    57  54  88 NE10      30.02S
$$

IAZ062-063-075>077-085>089-095>099-301200-
   SOUTHEAST IOWA

CITY           SKY/WX    TMP DP  RH WIND       PRES   REMARKS
BURLINGTON     CLOUDY    57  55  93 NE8       29.99S
FAIRFIELD *    CLOUDY    57  55  94 E10       29.99S FOG
FORT MADISON * CLOUDY    59  57  94 NE8       30.00R FOG
KEOKUK *       CLOUDY    59  57  94 NE9G15    29.97S FOG
OSKALOOSA *    CLOUDY    57  55  94 E12       29.99S
CENTERVILLE *  CLOUDY    59  59 100 E6        29.98S
OTTUMWA        CLOUDY    58  56  93 E12       29.99R
WASHINGTON *   CLOUDY    57  55  94 E13       30.00S FOG
$$

ABBREVIATIONS USED IN REMARKS
   TC - TEMPERATURES IN CELSIUS
  WCI - WIND CHILL INDEX
   HX - HEAT INDEX
  VSB - VISIBILITY
$$




USA.gov is the U.S. government's official web portal to all federal, state and local government web resources and services.